Location: Unspecified
(0.0000°N, 0.0000°E)
Time: 16:16:16
(UTC+00:00)

CZ-3B DEB - Pass Details

Date: 17 November 2025
Orbit: 513 x 39779 km, 23.4° (Epoch: 12 December)

Event Time Altitude Azimuth Distance (km) Brightness Sun altitude
Rises 18:38:32 0° 248° (WSW) 9,022 ? -12.6°
Reaches altitude 10° 18:42:31 10° 249° (WSW) 9,189 ? -13.5°
Maximum altitude 20:09:49 66° 283° (WNW) 23,772 ? -33.9°
Enters shadow 03:23:42 12° 294° (WNW) 33,571 ? -33.1°
Exits shadow 04:52:50 11° 296° (WNW) 19,730 ? -12.3°
Drops below altitude 10° 05:56:34 10° 108° (ESE) 2,641 ? 2.7°
Sets 05:57:59 0° 110° (ESE) 3,235 ? 3.0°
